This is the latest recevied weather packets stored in our database for station/object EA1AHA-13. If no packets are shown the sender has not sent any weather packets the latest 10 day(s).
| Time | Temp. | Humidity | Pressure | Rain* | Wind** | Luminosity | Snow |
|---|---|---|---|---|---|---|---|
| 1777831565 | 12.78° C | 95% | 1011.5 hPa | 0 mm | - | - | - |
| 1777830988 | 12.78° C | 96% | 1011.6 hPa | 0 mm | - | - | - |
| 1777830364 | 12.78° C | 95% | 1011.8 hPa | 0 mm | - | - | - |
| 1777829788 | 12.78° C | 96% | 1011.5 hPa | 0 mm | - | - | - |
| 1777829166 | 12.78° C | 95% | 1011.4 hPa | 0 mm | - | - | - |
| 1777828589 | 12.78° C | 95% | 1011.3 hPa | 0 mm | - | - | - |
| 1777827965 | 12.78° C | 95% | 1011.6 hPa | 0 mm | - | - | - |
| 1777827388 | 12.78° C | 95% | 1011.6 hPa | 0 mm | - | - | - |
| 1777826765 | 12.78° C | 95% | 1011.7 hPa | 0.25 mm | - | - | - |
| 1777826188 | 12.78° C | 96% | 1011.4 hPa | 0.25 mm | - | - | - |
| 1777825565 | 12.78° C | 96% | 1011.3 hPa | 0.51 mm | - | - | - |
| 1777824988 | 12.78° C | 96% | 1011.3 hPa | 1.02 mm | - | - | - |
| 1777824365 | 12.78° C | 97% | 1011.3 hPa | 1.27 mm | - | - | - |
| 1777823789 | 13.33° C | 97% | 1011.3 hPa | 1.27 mm | - | - | - |
| 1777823165 | 13.33° C | 96% | 1011.2 hPa | 1.02 mm | - | - | - |
| 1777822589 | 13.33° C | 97% | 1011.1 hPa | 1.27 mm | - | - | - |
| 1777821964 | 12.78° C | 96% | 1011.3 hPa | 1.78 mm | - | - | - |
| 1777821389 | 13.33° C | 96% | 1011.4 hPa | 1.27 mm | - | - | - |
| 1777820765 | 13.33° C | 96% | 1011.3 hPa | 1.02 mm | - | - | - |
| 1777820189 | 13.33° C | 95% | 1011.1 hPa | 1.02 mm | - | - | - |
| 1777819565 | 13.33° C | 95% | 1011.1 hPa | 1.27 mm | - | - | - |
| 1777818988 | 13.33° C | 95% | 1011.3 hPa | 1.27 mm | - | - | - |
| 1777818365 | 13.33° C | 94% | 1011.1 hPa | 1.78 mm | - | - | - |
| 1777817789 | 13.33° C | 94% | 1011.3 hPa | 1.78 mm | - | - | - |
| 1777817164 | 13.89° C | 94% | 1011.2 hPa | 2.03 mm | - | - | - |
* Rain latest hour (hover to see other rain measurements)
** Current wind speed in m/s (hover to see current wind gust speed)